| time (UTC) | temp C | wind direction | speed KPH | gust KPH | rain 1hr cm | rain 24hr cm | rain mn cm | humidity % | barometer mb |
| 20260506192551 | 17 | 359 | 9.7 | 19.3 | 0.00 | 0.08 | 0.08 | 86 | 1007.2 |
| 20260506192053 | 17 | 211 | 4.8 | 14.5 | 0.00 | 0.08 | 0.08 | 86 | 1007.2 |
| 20260506191551 | 17 | 250 | 8.0 | 16.1 | 0.00 | 0.08 | 0.08 | 86 | 1007.3 |
| 20260506191053 | 17 | 359 | 9.7 | 17.7 | 0.00 | 0.08 | 0.08 | 86 | 1007.3 |
| 20260506190552 | 17 | 247 | 9.7 | 19.3 | 0.00 | 0.08 | 0.08 | 86 | 1007.4 |
| 20260506190050 | 17 | 265 | 9.7 | 24.1 | 0.00 | 0.08 | 0.08 | 86 | 1007.3 |
| 20260506185549 | 17 | 359 | 16.1 | 25.7 | 0.00 | 0.08 | 0.08 | 85 | 1007.3 |
| 20260506185052 | 17 | 359 | 11.3 | 22.5 | 0.00 | 0.08 | 0.08 | 85 | 1007.4 |
| 20260506184548 | 17 | 235 | 8.0 | 25.7 | 0.00 | 0.08 | 0.08 | 84 | 1007.5 |
| 20260506184049 | 17 | 262 | 14.5 | 37.0 | 0.00 | 0.08 | 0.08 | 83 | 1007.5 |
| 20260506183551 | 18 | 256 | 20.9 | 37.0 | 0.00 | 0.08 | 0.08 | 81 | 1007.6 |
| 20260506183101 | 18 | 204 | 17.7 | 40.2 | 0.00 | 0.08 | 0.08 | 78 | 1007.5 |
| 20260506182546 | 19 | 218 | 24.1 | 37.0 | 0.00 | 0.08 | 0.08 | 76 | 1007.5 |
| 20260506182046 | 19 | 199 | 25.7 | 43.5 | 0.00 | 0.08 | 0.08 | 74 | 1007.5 |
| 20260506181554 | 20 | 193 | 20.9 | 43.5 | 0.00 | 0.08 | 0.08 | 74 | 1007.4 |
| 20260506181047 | 20 | 241 | 19.3 | 32.2 | 0.00 | 0.08 | 0.08 | 75 | 1007.6 |
| 20260506180550 | 19 | 359 | 12.9 | 29.0 | 0.00 | 0.08 | 0.08 | 76 | 1007.6 |
| 20260506180046 | 19 | 359 | 14.5 | 29.0 | 0.00 | 0.08 | 0.08 | 76 | 1007.6 |
| 20260506175547 | 19 | 213 | 9.7 | 24.1 | 0.00 | 0.08 | 0.08 | 78 | 1007.7 |
| 20260506175046 | 19 | 237 | 9.7 | 19.3 | 0.03 | 0.08 | 0.08 | 79 | 1007.7 |
| 20260506174547 | 19 | 359 | 6.4 | 14.5 | 0.03 | 0.08 | 0.08 | 80 | 1007.5 |
| 20260506174046 | 19 | 170 | 4.8 | 12.9 | 0.03 | 0.08 | 0.08 | 80 | 1007.4 |
| 20260506173547 | 19 | 195 | 6.4 | 19.3 | 0.05 | 0.08 | 0.08 | 81 | 1007.5 |
| 20260506173053 | 18 | 216 | 8.0 | 19.3 | 0.05 | 0.08 | 0.08 | 82 | 1007.6 |
| 20260506172544 | 18 | 215 | 9.7 | 17.7 | 0.05 | 0.08 | 0.08 | 82 | 1007.7 |
| 20260506172043 | 18 | 216 | 3.2 | 16.1 | 0.05 | 0.08 | 0.08 | 83 | 1007.7 |
| 20260506171546 | 18 | 359 | 6.4 | 14.5 | 0.08 | 0.08 | 0.08 | 83 | 1007.8 |
| 20260506171043 | 18 | 215 | 8.0 | 16.1 | 0.08 | 0.08 | 0.08 | 82 | 1007.8 |
| 20260506170542 | 18 | 174 | 8.0 | 17.7 | 0.08 | 0.08 | 0.08 | 82 | 1008.0 |
| 20260506170045 | 18 | 237 | 11.3 | 20.9 | 0.08 | 0.08 | 0.08 | 82 | 1008.2 |
| 20260506165540 | 18 | 226 | 9.7 | 22.5 | 0.08 | 0.08 | 0.08 | 81 | 1008.5 |
| 20260506165039 | 18 | 359 | 12.9 | 30.6 | 0.05 | 0.05 | 0.05 | 81 | 1008.7 |
| 20260506164546 | 18 | 220 | 14.5 | 30.6 | 0.05 | 0.05 | 0.05 | 80 | 1008.8 |
| 20260506164037 | 18 | 224 | 16.1 | 30.6 | 0.05 | 0.05 | 0.05 | 79 | 1009.0 |
| 20260506163538 | 18 | 226 | 12.9 | 30.6 | 0.03 | 0.03 | 0.03 | 78 | 1009.0 |
| 20260506163037 | 18 | 228 | 12.9 | 24.1 | 0.03 | 0.03 | 0.03 | 78 | 1009.0 |
| 20260506162536 | 18 | 359 | 11.3 | 30.6 | 0.03 | 0.03 | 0.03 | 77 | 1009.0 |
| 20260506162036 | 18 | 199 | 14.5 | 30.6 | 0.03 | 0.03 | 0.03 | 75 | 1009.2 |
| 20260506161544 | 19 | 264 | 16.1 | 27.4 | 0.00 | 0.00 | 0.00 | 73 | 1009.2 |
| 20260506161035 | 20 | 240 | 17.7 | 32.2 | 0.00 | 0.00 | 0.00 | 71 | 1009.1 |
| 20260506160535 | 20 | 236 | 11.3 | 32.2 | 0.00 | 0.00 | 0.00 | 69 | 1009.3 |
| 20260506160044 | 20 | 237 | 16.1 | 37.0 | 0.00 | 0.00 | 0.00 | 67 | 1009.3 |
| 20260506155535 | 21 | 219 | 17.7 | 37.0 | 0.00 | 0.00 | 0.00 | 65 | 1009.2 |
| 20260506155035 | 21 | 233 | 16.1 | 37.0 | 0.00 | 0.00 | 0.00 | 64 | 1009.1 |
| 20260506154535 | 21 | 237 | 20.9 | 37.0 | 0.00 | 0.00 | 0.00 | 63 | 1009.2 |
| 20260506154035 | 21 | 258 | 17.7 | 35.4 | 0.00 | 0.00 | 0.00 | 63 | 1009.3 |
| 20260506153535 | 21 | 206 | 19.3 | 35.4 | 0.00 | 0.00 | 0.00 | 63 | 1009.0 |
| 20260506153033 | 21 | 226 | 16.1 | 27.4 | 0.00 | 0.00 | 0.00 | 64 | 1009.0 |
| 20260506152535 | 21 | 359 | 16.1 | 35.4 | 0.00 | 0.00 | 0.00 | 64 | 1009.1 |
| 20260506152034 | 21 | 247 | 17.7 | 37.0 | 0.00 | 0.00 | 0.00 | 64 | 1009.0 |
| 20260506151540 | 21 | 218 | 20.9 | 37.0 | 0.00 | 0.00 | 0.00 | 63 | 1009.0 |
| 20260506151034 | 21 | 241 | 11.3 | 29.0 | 0.00 | 0.00 | 0.00 | 63 | 1009.2 |
| 20260506150534 | 21 | 237 | 16.1 | 33.8 | 0.00 | 0.00 | 0.00 | 63 | 1009.3 |
| 20260506150033 | 21 | 216 | 17.7 | 40.2 | 0.00 | 0.00 | 0.00 | 63 | 1009.4 |
| 20260506145533 | 21 | 285 | 17.7 | 49.9 | 0.00 | 0.00 | 0.00 | 63 | 1009.2 |
| 20260506145032 | 21 | 232 | 24.1 | 49.9 | 0.00 | 0.00 | 0.00 | 63 | 1009.2 |
| 20260506144532 | 21 | 270 | 19.3 | 33.8 | 0.00 | 0.00 | 0.00 | 63 | 1009.3 |
| 20260506144041 | 21 | 359 | 17.7 | 33.8 | 0.00 | 0.00 | 0.00 | 63 | 1009.3 |
| 20260506143532 | 21 | 194 | 19.3 | 37.0 | 0.00 | 0.00 | 0.00 | 63 | 1009.3 |
| 20260506143042 | 21 | 359 | 14.5 | 37.0 | 0.00 | 0.00 | 0.00 | 64 | 1009.2 |
| 20260506142529 | 21 | 252 | 19.3 | 37.0 | 0.00 | 0.00 | 0.00 | 64 | 1009.1 |
| 20260506142028 | 21 | 277 | 14.5 | 30.6 | 0.00 | 0.00 | 0.00 | 64 | 1009.2 |
| 20260506141528 | 21 | 359 | 14.5 | 29.0 | 0.00 | 0.00 | 0.00 | 65 | 1009.2 |
| 20260506141031 | 21 | 259 | 12.9 | 43.5 | 0.00 | 0.00 | 0.00 | 65 | 1009.2 |
| 20260506140528 | 21 | 256 | 17.7 | 43.5 | 0.00 | 0.00 | 0.00 | 65 | 1009.1 |
| 20260506140033 | 21 | 237 | 16.1 | 37.0 | 0.00 | 0.00 | 0.00 | 65 | 1009.2 |
| 20260506135531 | 21 | 216 | 14.5 | 30.6 | 0.00 | 0.00 | 0.00 | 65 | 1009.1 |
| 20260506135026 | 21 | 228 | 14.5 | 30.6 | 0.00 | 0.00 | 0.00 | 65 | 1009.2 |
| 20260506134528 | 21 | 241 | 16.1 | 37.0 | 0.00 | 0.00 | 0.00 | 65 | 1009.1 |
| 20260506134026 | 21 | 233 | 24.1 | 37.0 | 0.00 | 0.00 | 0.00 | 65 | 1009.3 |
| 20260506133526 | 21 | 227 | 16.1 | 33.8 | 0.00 | 0.00 | 0.00 | 66 | 1009.4 |
| 20260506133026 | 21 | 359 | 11.3 | 29.0 | 0.00 | 0.00 | 0.00 | 66 | 1009.4 |
| 20260506132524 | 21 | 359 | 11.3 | 30.6 | 0.00 | 0.00 | 0.00 | 67 | 1009.4 |
| 20260506132023 | 20 | 260 | 11.3 | 35.4 | 0.00 | 0.00 | 0.00 | 67 | 1009.2 |
| 20260506131526 | 20 | 252 | 12.9 | 35.4 | 0.00 | 0.00 | 0.00 | 68 | 1009.4 |
| 20260506131022 | 20 | 249 | 14.5 | 33.8 | 0.00 | 0.00 | 0.00 | 68 | 1009.4 |
| 20260506130526 | 20 | 190 | 16.1 | 30.6 | 0.00 | 0.00 | 0.00 | 68 | 1009.3 |
| 20260506130021 | 20 | 244 | 12.9 | 32.2 | 0.00 | 0.00 | 0.00 | 68 | 1009.3 |
| 20260506125521 | 20 | 237 | 16.1 | 32.2 | 0.00 | 0.00 | 0.00 | 68 | 1009.2 |
| 20260506125020 | 20 | 253 | 11.3 | 27.4 | 0.00 | 0.00 | 0.00 | 69 | 1009.2 |
| 20260506124520 | 20 | 248 | 16.1 | 32.2 | 0.00 | 0.00 | 0.00 | 69 | 1009.3 |
| 20260506124021 | 20 | 359 | 16.1 | 32.2 | 0.00 | 0.00 | 0.00 | 70 | 1009.2 |
| 20260506123520 | 19 | 359 | 12.9 | 25.7 | 0.00 | 0.00 | 0.00 | 71 | 1009.3 |
| 20260506123019 | 19 | 359 | 12.9 | 25.7 | 0.00 | 0.00 | 0.00 | 71 | 1009.2 |
| 20260506122519 | 19 | 249 | 11.3 | 25.7 | 0.00 | 0.00 | 0.00 | 71 | 1009.4 |
| 20260506122020 | 18 | 225 | 14.5 | 30.6 | 0.00 | 0.00 | 0.00 | 72 | 1009.4 |
| 20260506121519 | 18 | 255 | 12.9 | 30.6 | 0.00 | 0.00 | 0.00 | 72 | 1009.4 |
| 20260506121020 | 18 | 231 | 12.9 | 29.0 | 0.00 | 0.00 | 0.00 | 72 | 1009.3 |
| 20260506120522 | 18 | 243 | 16.1 | 29.0 | 0.00 | 0.00 | 0.00 | 72 | 1009.4 |
| 20260506120019 | 18 | 224 | 12.9 | 35.4 | 0.00 | 0.00 | 0.00 | 72 | 1009.5 |
| 20260506115520 | 18 | 212 | 20.9 | 37.0 | 0.00 | 0.00 | 0.00 | 72 | 1009.6 |
| 20260506115018 | 18 | 224 | 17.7 | 37.0 | 0.00 | 0.00 | 0.00 | 72 | 1009.6 |
| 20260506114523 | 18 | 359 | 17.7 | 37.0 | 0.00 | 0.00 | 0.00 | 73 | 1009.6 |
| 20260506114018 | 18 | 246 | 19.3 | 35.4 | 0.00 | 0.00 | 0.00 | 73 | 1009.6 |
| 20260506113518 | 18 | 238 | 12.9 | 29.0 | 0.00 | 0.00 | 0.00 | 73 | 1009.6 |
| 20260506113019 | 18 | 230 | 17.7 | 29.0 | 0.00 | 0.00 | 0.00 | 74 | 1009.6 |
| 20260506112516 | 18 | 219 | 16.1 | 35.4 | 0.00 | 0.00 | 0.00 | 75 | 1009.6 |
| 20260506112016 | 18 | 359 | 14.5 | 35.4 | 0.00 | 0.00 | 0.00 | 75 | 1009.5 |
| 20260506111516 | 18 | 285 | 16.1 | 32.2 | 0.00 | 0.00 | 0.00 | 75 | 1009.7 |
| 20260506111016 | 18 | 239 | 14.5 | 30.6 | 0.00 | 0.00 | 0.00 | 75 | 1009.6 |
| 20260506110520 | 18 | 359 | 12.9 | 29.0 | 0.00 | 0.00 | 0.00 | 76 | 1009.5 |
| 20260506110017 | 17 | 233 | 16.1 | 29.0 | 0.00 | 0.00 | 0.00 | 76 | 1009.4 |
| 20260506105518 | 17 | 242 | 12.9 | 27.4 | 0.00 | 0.00 | 0.00 | 76 | 1009.3 |
| 20260506105017 | 17 | 195 | 12.9 | 27.4 | 0.00 | 0.00 | 0.00 | 77 | 1009.3 |
| 20260506104516 | 17 | 206 | 12.9 | 25.7 | 0.00 | 0.00 | 0.00 | 77 | 1009.4 |
| 20260506104014 | 17 | 190 | 14.5 | 30.6 | 0.00 | 0.00 | 0.00 | 77 | 1009.4 |
| 20260506103515 | 17 | 359 | 11.3 | 30.6 | 0.00 | 0.00 | 0.00 | 77 | 1009.4 |
| 20260506103016 | 17 | 359 | 16.1 | 29.0 | 0.00 | 0.00 | 0.00 | 77 | 1009.4 |
| 20260506102512 | 17 | 237 | 11.3 | 24.1 | 0.00 | 0.00 | 0.00 | 77 | 1009.4 |
| 20260506102011 | 17 | 189 | 11.3 | 24.1 | 0.00 | 0.00 | 0.00 | 78 | 1009.3 |
| 20260506101518 | 17 | 228 | 9.7 | 25.7 | 0.00 | 0.00 | 0.00 | 78 | 1009.3 |
| 20260506101015 | 17 | 177 | 12.9 | 25.7 | 0.00 | 0.00 | 0.00 | 78 | 1009.2 |
| 20260506100513 | 17 | 230 | 9.7 | 22.5 | 0.00 | 0.00 | 0.00 | 78 | 1009.2 |
| 20260506100009 | 17 | 189 | 11.3 | 30.6 | 0.00 | 0.00 | 0.00 | 78 | 1009.1 |
| 20260506095508 | 17 | 233 | 14.5 | 30.6 | 0.00 | 0.00 | 0.00 | 78 | 1009.2 |
| 20260506095008 | 17 | 212 | 12.9 | 25.7 | 0.00 | 0.00 | 0.00 | 78 | 1009.2 |
| 20260506094514 | 17 | 214 | 16.1 | 25.7 | 0.00 | 0.00 | 0.00 | 78 | 1009.2 |
| 20260506094006 | 17 | 219 | 14.5 | 29.0 | 0.00 | 0.00 | 0.00 | 78 | 1009.2 |
| 20260506093607 | 17 | 226 | 12.9 | 27.4 | 0.00 | 0.00 | 0.00 | 78 | 1009.2 |
| 20260506093005 | 17 | 359 | 8.0 | 19.3 | 0.00 | 0.00 | 0.00 | 78 | 1009.2 |
| 20260506092504 | 17 | 233 | 11.3 | 22.5 | 0.00 | 0.00 | 0.00 | 78 | 1009.2 |
| 20260506092004 | 17 | 235 | 6.4 | 22.5 | 0.00 | 0.00 | 0.00 | 78 | 1009.3 |
| 20260506091504 | 17 | 249 | 9.7 | 22.5 | 0.00 | 0.00 | 0.00 | 78 | 1009.3 |
| 20260506091007 | 17 | 359 | 9.7 | 24.1 | 0.00 | 0.00 | 0.00 | 78 | 1009.3 |
| 20260506090504 | 17 | 193 | 11.3 | 24.1 | 0.00 | 0.00 | 0.00 | 78 | 1009.2 |
| 20260506090006 | 17 | 208 | 11.3 | 22.5 | 0.00 | 0.00 | 0.00 | 78 | 1009.3 |
| 20260506085501 | 17 | 359 | 6.4 | 24.1 | 0.00 | 0.00 | 0.00 | 78 | 1009.3 |
| 20260506085001 | 17 | 183 | 14.5 | 24.1 | 0.00 | 0.00 | 0.00 | 78 | 1009.5 |
| 20260506084608 | 17 | 200 | 9.7 | 27.4 | 0.00 | 0.00 | 0.00 | 78 | 1009.4 |
| 20260506084503 | 17 | 359 | 9.7 | 27.4 | 0.00 | 0.00 | 0.00 | 78 | 1009.5 |
| 20260506084100 | 17 | 216 | 12.9 | 27.4 | 0.00 | 0.00 | 0.00 | 78 | 1009.4 |
| 20260506083559 | 17 | 227 | 12.9 | 25.7 | 0.00 | 0.00 | 0.00 | 78 | 1009.5 |
| 20260506083058 | 17 | 359 | 14.5 | 24.1 | 0.00 | 0.00 | 0.00 | 78 | 1009.4 |
| 20260506082558 | 17 | 218 | 11.3 | 24.1 | 0.00 | 0.00 | 0.00 | 78 | 1009.5 |
| 20260506082058 | 17 | 162 | 9.7 | 22.5 | 0.00 | 0.00 | 0.00 | 77 | 1009.7 |
| 20260506081555 | 17 | 212 | 11.3 | 22.5 | 0.00 | 0.00 | 0.00 | 78 | 1009.6 |
| 20260506081054 | 17 | 359 | 9.7 | 22.5 | 0.00 | 0.00 | 0.00 | 78 | 1009.6 |
| 20260506080553 | 17 | 236 | 11.3 | 22.5 | 0.00 | 0.00 | 0.00 | 78 | 1009.6 |
| 20260506073049 | 17 | 232 | 8.0 | 19.3 | 0.00 | 0.00 | 0.00 | 76 | 1009.6 |
| 20260506072547 | 17 | 231 | 9.7 | 19.3 | 0.00 | 0.00 | 0.00 | 75 | 1009.6 |
| 20260506072050 | 18 | 227 | 6.4 | 24.1 | 0.00 | 0.00 | 0.00 | 75 | 1009.7 |
| 20260506071603 | 18 | 226 | 12.9 | 24.1 | 0.00 | 0.00 | 0.00 | 75 | 1009.7 |
| 20260506071047 | 18 | 216 | 9.7 | 24.1 | 0.00 | 0.00 | 0.00 | 74 | 1009.8 |
| 20260506070544 | 18 | 359 | 14.5 | 24.1 | 0.00 | 0.00 | 0.00 | 74 | 1009.8 |
| 20260506062036 | 18 | 206 | 14.5 | 24.1 | 0.00 | 0.00 | 0.00 | 72 | 1009.7 |
| 20260506061536 | 18 | 223 | 12.9 | 20.9 | 0.00 | 0.00 | 0.00 | 71 | 1009.7 |
| 20260506061035 | 18 | 233 | 12.9 | 27.4 | 0.00 | 0.00 | 0.00 | 71 | 1009.7 |
| 20260506060536 | 19 | 204 | 12.9 | 25.7 | 0.00 | 0.00 | 0.00 | 71 | 1009.7 |
| 20260506051024 | 19 | 259 | 14.5 | 29.0 | 0.00 | 0.00 | 0.00 | 68 | 1010.2 |
| 20260506050527 | 19 | 181 | 19.3 | 32.2 | 0.00 | 0.00 | 0.00 | 68 | 1010.2 |
| 20260506045022 | 19 | 251 | 12.9 | 30.6 | 0.00 | 0.00 | 0.00 | 68 | 1010.2 |
| 20260506044525 | 19 | 247 | 12.9 | 30.6 | 0.00 | 0.00 | 0.00 | 67 | 1010.2 |
| 20260506044028 | 19 | 216 | 12.9 | 25.7 | 0.00 | 0.00 | 0.00 | 67 | 1010.3 |
| 20260506043521 | 20 | 278 | 16.1 | 25.7 | 0.00 | 0.00 | 0.00 | 67 | 1010.2 |
| 20260506043021 | 20 | 223 | 12.9 | 33.8 | 0.00 | 0.00 | 0.00 | 67 | 1010.2 |
| 20260506042519 | 20 | 226 | 16.1 | 33.8 | 0.00 | 0.00 | 0.00 | 67 | 1010.3 |
| 20260506042024 | 20 | 199 | 19.3 | 32.2 | 0.00 | 0.00 | 0.00 | 66 | 1010.2 |
| 20260506041526 | 20 | 241 | 12.9 | 32.2 | 0.00 | 0.00 | 0.00 | 66 | 1010.3 |
| 20260506041017 | 20 | 231 | 14.5 | 33.8 | 0.00 | 0.00 | 0.00 | 65 | 1010.3 |
| 20260506040522 | 20 | 359 | 19.3 | 37.0 | 0.00 | 0.00 | 0.00 | 65 | 1010.2 |
| 20260506040014 | 20 | 242 | 14.5 | 32.2 | 0.00 | 0.00 | 0.00 | 65 | 1010.2 |
| 20260506035520 | 20 | 210 | 16.1 | 27.4 | 0.00 | 0.00 | 0.00 | 65 | 1010.3 |
| 20260506035015 | 20 | 200 | 11.3 | 30.6 | 0.00 | 0.00 | 0.00 | 64 | 1010.3 |
| 20260506034515 | 20 | 260 | 12.9 | 29.0 | 0.00 | 0.00 | 0.00 | 64 | 1010.4 |
| 20260506034014 | 20 | 217 | 17.7 | 38.6 | 0.00 | 0.00 | 0.00 | 63 | 1010.5 |
| 20260506033514 | 20 | 225 | 9.7 | 38.6 | 0.00 | 0.00 | 0.00 | 63 | 1010.4 |
| 20260506033014 | 20 | 222 | 17.7 | 40.2 | 0.00 | 0.00 | 0.00 | 62 | 1010.3 |
| 20260506032518 | 20 | 247 | 19.3 | 40.2 | 0.00 | 0.00 | 0.00 | 62 | 1010.2 |
| 20260506032014 | 20 | 237 | 22.5 | 37.0 | 0.00 | 0.00 | 0.00 | 61 | 1010.1 |
| 20260506031519 | 21 | 179 | 14.5 | 40.2 | 0.00 | 0.00 | 0.00 | 61 | 1010.2 |
| 20260506031014 | 21 | 211 | 20.9 | 40.2 | 0.00 | 0.00 | 0.00 | 61 | 1010.2 |
| 20260506030513 | 21 | 243 | 20.9 | 43.5 | 0.00 | 0.00 | 0.00 | 60 | 1010.2 |
| 20260506030015 | 21 | 212 | 24.1 | 43.5 | 0.00 | 0.00 | 0.00 | 60 | 1010.2 |
| 20260506025514 | 21 | 204 | 16.1 | 41.8 | 0.00 | 0.00 | 0.00 | 59 | 1010.0 |
| 20260506025015 | 21 | 236 | 19.3 | 41.8 | 0.00 | 0.00 | 0.00 | 59 | 1010.2 |
| 20260506024512 | 21 | 359 | 17.7 | 35.4 | 0.00 | 0.00 | 0.00 | 59 | 1010.1 |
| 20260506024012 | 21 | 236 | 16.1 | 29.0 | 0.00 | 0.00 | 0.00 | 59 | 1010.2 |
| 20260506023513 | 21 | 226 | 16.1 | 33.8 | 0.00 | 0.00 | 0.00 | 59 | 1010.2 |
| 20260506023012 | 21 | 255 | 17.7 | 37.0 | 0.00 | 0.00 | 0.00 | 58 | 1010.3 |
| 20260506022511 | 21 | 190 | 12.9 | 37.0 | 0.00 | 0.00 | 0.00 | 58 | 1010.2 |
| 20260506022011 | 21 | 359 | 16.1 | 35.4 | 0.00 | 0.00 | 0.00 | 58 | 1010.2 |
| 20260506021511 | 21 | 233 | 9.7 | 30.6 | 0.00 | 0.00 | 0.00 | 58 | 1010.2 |
| 20260506021011 | 21 | 187 | 19.3 | 30.6 | 0.00 | 0.00 | 0.00 | 58 | 1010.2 |
| 20260506020513 | 21 | 222 | 12.9 | 32.2 | 0.00 | 0.00 | 0.00 | 58 | 1010.2 |
| 20260506020014 | 21 | 206 | 16.1 | 32.2 | 0.00 | 0.00 | 0.00 | 58 | 1010.2 |
| 20260506015511 | 21 | 195 | 14.5 | 33.8 | 0.00 | 0.00 | 0.00 | 58 | 1010.1 |
| 20260506015011 | 21 | 218 | 22.5 | 33.8 | 0.00 | 0.00 | 0.00 | 57 | 1010.1 |
| 20260506014517 | 21 | 231 | 19.3 | 32.2 | 0.00 | 0.00 | 0.00 | 57 | 1010.0 |
| 20260506014010 | 22 | 208 | 12.9 | 32.2 | 0.00 | 0.00 | 0.00 | 57 | 1009.9 |
| 20260506013510 | 22 | 247 | 16.1 | 32.2 | 0.00 | 0.00 | 0.00 | 57 | 1010.0 |
| 20260506013022 | 22 | 229 | 16.1 | 30.6 | 0.00 | 0.00 | 0.00 | 57 | 1009.9 |
| 20260506012510 | 22 | 169 | 14.5 | 29.0 | 0.00 | 0.00 | 0.00 | 57 | 1010.0 |
| 20260506012010 | 22 | 217 | 11.3 | 30.6 | 0.00 | 0.00 | 0.00 | 57 | 1009.8 |
| 20260506011509 | 22 | 262 | 14.5 | 29.0 | 0.00 | 0.00 | 0.00 | 57 | 1009.8 |
| 20260506011009 | 22 | 226 | 14.5 | 29.0 | 0.00 | 0.00 | 0.00 | 56 | 1009.7 |
| 20260506010510 | 22 | 175 | 11.3 | 29.0 | 0.00 | 0.00 | 0.00 | 56 | 1009.7 |
| 20260506010009 | 22 | 206 | 11.3 | 33.8 | 0.00 | 0.00 | 0.00 | 55 | 1009.7 |
| 20260506005509 | 22 | 253 | 14.5 | 29.0 | 0.00 | 0.00 | 0.00 | 54 | 1009.6 |
| 20260506005015 | 23 | 197 | 12.9 | 29.0 | 0.00 | 0.00 | 0.00 | 51 | 1009.4 |
| 20260506004517 | 24 | 194 | 14.5 | 30.6 | 0.00 | 0.00 | 0.00 | 47 | 1009.4 |
| 20260506004008 | 24 | 252 | 16.1 | 35.4 | 0.00 | 0.00 | 0.00 | 45 | 1009.2 |
| 20260506003510 | 24 | 249 | 20.9 | 35.4 | 0.00 | 0.00 | 0.00 | 44 | 1009.2 |
| 20260506003007 | 25 | 256 | 17.7 | 37.0 | 0.00 | 0.00 | 0.00 | 44 | 1009.2 |
| 20260506002510 | 25 | 248 | 14.5 | 27.4 | 0.00 | 0.00 | 0.00 | 44 | 1009.2 |
| 20260506002007 | 25 | 241 | 14.5 | 35.4 | 0.00 | 0.00 | 0.00 | 43 | 1009.1 |
| 20260506001508 | 25 | 256 | 17.7 | 35.4 | 0.00 | 0.00 | 0.00 | 43 | 1009.1 |
| 20260506001008 | 25 | 237 | 12.9 | 30.6 | 0.00 | 0.00 | 0.00 | 43 | 1009.0 |
| 20260506000507 | 25 | 213 | 19.3 | 38.6 | 0.00 | 0.00 | 0.00 | 42 | 1009.0 |
| 20260506000015 | 25 | 231 | 20.9 | 38.6 | 0.00 | 0.00 | 0.00 | 41 | 1008.9 |
| 20260505235514 | 25 | 212 | 20.9 | 45.1 | 0.00 | 0.00 | 0.00 | 41 | 1008.9 |
| 20260505235007 | 26 | 249 | 17.7 | 45.1 | 0.00 | 0.00 | 0.00 | 41 | 1009.0 |
| 20260505234514 | 26 | 234 | 24.1 | 45.1 | 0.00 | 0.00 | 0.00 | 40 | 1008.9 |
| 20260505234006 | 26 | 230 | 19.3 | 35.4 | 0.00 | 0.00 | 0.00 | 40 | 1009.0 |
| 20260505233511 | 26 | 256 | 14.5 | 40.2 | 0.00 | 0.00 | 0.00 | 39 | 1008.8 |
| 20260505233006 | 26 | 226 | 24.1 | 43.5 | 0.00 | 0.00 | 0.00 | 39 | 1008.7 |
| 20260505232505 | 26 | 284 | 14.5 | 32.2 | 0.00 | 0.00 | 0.00 | 39 | 1008.7 |
| 20260505232005 | 26 | 241 | 11.3 | 32.2 | 0.00 | 0.00 | 0.00 | 38 | 1008.4 |
| 20260505231505 | 26 | 217 | 14.5 | 32.2 | 0.00 | 0.00 | 0.00 | 36 | 1008.2 |
| 20260505231004 | 26 | 214 | 14.5 | 32.2 | 0.00 | 0.00 | 0.00 | 34 | 1008.3 |
| 20260505230506 | 27 | 359 | 12.9 | 29.0 | 0.00 | 0.00 | 0.00 | 34 | 1008.2 |
| 20260505230005 | 27 | 297 | 19.3 | 43.5 | 0.00 | 0.00 | 0.00 | 33 | 1008.1 |
| 20260505225505 | 27 | 210 | 14.5 | 51.5 | 0.00 | 0.00 | 0.00 | 33 | 1008.1 |
| 20260505225005 | 27 | 251 | 25.7 | 49.9 | 0.00 | 0.00 | 0.00 | 33 | 1008.1 |
| 20260505224506 | 27 | 235 | 19.3 | 33.8 | 0.00 | 0.00 | 0.00 | 32 | 1008.1 |
| 20260505224007 | 27 | 253 | 17.7 | 43.5 | 0.00 | 0.00 | 0.00 | 32 | 1008.2 |
| 20260505223507 | 27 | 359 | 22.5 | 53.1 | 0.00 | 0.00 | 0.00 | 31 | 1008.0 |
| 20260505223007 | 27 | 229 | 22.5 | 53.1 | 0.00 | 0.00 | 0.00 | 30 | 1007.9 |
| 20260505222503 | 27 | 252 | 22.5 | 43.5 | 0.00 | 0.00 | 0.00 | 30 | 1008.0 |
| 20260505222005 | 27 | 272 | 24.1 | 51.5 | 0.00 | 0.00 | 0.00 | 29 | 1008.0 |
| 20260505221503 | 28 | 269 | 30.6 | 51.5 | 0.00 | 0.00 | 0.00 | 29 | 1008.0 |
| 20260505221002 | 28 | 259 | 24.1 | 48.3 | 0.00 | 0.00 | 0.00 | 29 | 1007.8 |
| 20260505220502 | 28 | 226 | 17.7 | 37.0 | 0.00 | 0.00 | 0.00 | 30 | 1007.8 |
| 20260505220006 | 28 | 279 | 16.1 | 51.5 | 0.00 | 0.00 | 0.00 | 30 | 1007.7 |
| 20260505215100 | 28 | 359 | 20.9 | 35.4 | 0.00 | 0.00 | 0.00 | 35 | 1007.5 |
| 20260505214609 | 28 | 245 | 20.9 | 33.8 | 0.00 | 0.00 | 0.00 | 35 | 1007.4 |
| 20260505214101 | 28 | 218 | 16.1 | 49.9 | 0.00 | 0.00 | 0.00 | 36 | 1007.6 |
| 20260505213558 | 28 | 235 | 24.1 | 43.5 | 0.00 | 0.00 | 0.00 | 36 | 1007.5 |
| 20260505213101 | 28 | 234 | 22.5 | 38.6 | 0.00 | 0.00 | 0.00 | 36 | 1007.6 |
| 20260505212557 | 28 | 287 | 19.3 | 46.7 | 0.00 | 0.00 | 0.00 | 36 | 1007.4 |
| 20260505212057 | 28 | 264 | 24.1 | 46.7 | 0.00 | 0.00 | 0.00 | 35 | 1007.5 |
| 20260505211616 | 28 | 359 | 19.3 | 46.7 | 0.00 | 0.00 | 0.00 | 34 | 1007.5 |
| 20260505211056 | 28 | 193 | 17.7 | 56.3 | 0.00 | 0.00 | 0.00 | 35 | 1007.4 |
| 20260505210556 | 28 | 316 | 20.9 | 56.3 | 0.00 | 0.00 | 0.00 | 35 | 1007.5 |
| 20260505210106 | 28 | 359 | 22.5 | 48.3 | 0.00 | 0.00 | 0.00 | 35 | 1007.3 |
| 20260505205555 | 28 | 282 | 20.9 | 53.1 | 0.00 | 0.00 | 0.00 | 34 | 1007.4 |
| 20260505205055 | 28 | 229 | 27.4 | 45.1 | 0.00 | 0.00 | 0.00 | 34 | 1007.2 |
| 20260505204555 | 28 | 240 | 24.1 | 41.8 | 0.00 | 0.00 | 0.00 | 33 | 1007.3 |
| 20260505204056 | 28 | 241 | 27.4 | 41.8 | 0.00 | 0.00 | 0.00 | 33 | 1007.2 |
| 20260505203554 | 28 | 254 | 25.7 | 41.8 | 0.00 | 0.00 | 0.00 | 33 | 1007.5 |
| 20260505203054 | 28 | 359 | 22.5 | 46.7 | 0.00 | 0.00 | 0.00 | 34 | 1007.5 |
| 20260505202554 | 28 | 359 | 27.4 | 46.7 | 0.00 | 0.00 | 0.00 | 33 | 1007.5 |
| 20260505202054 | 28 | 247 | 22.5 | 46.7 | 0.00 | 0.00 | 0.00 | 33 | 1007.5 |
| 20260505201604 | 28 | 359 | 12.9 | 46.7 | 0.00 | 0.00 | 0.00 | 34 | 1007.5 |
| 20260505201053 | 28 | 237 | 22.5 | 46.7 | 0.00 | 0.00 | 0.00 | 33 | 1007.7 |
| 20260505200552 | 28 | 246 | 22.5 | 41.8 | 0.00 | 0.00 | 0.00 | 32 | 1007.7 |
| 20260505200052 | 28 | 214 | 24.1 | 40.2 | 0.00 | 0.00 | 0.00 | 33 | 1007.7 |
| 20260505195552 | 28 | 229 | 17.7 | 40.2 | 0.00 | 0.00 | 0.00 | 33 | 1007.6 |
| 20260505195054 | 28 | 212 | 22.5 | 40.2 | 0.00 | 0.00 | 0.00 | 33 | 1007.6 |
| 20260505194550 | 28 | 231 | 24.1 | 40.2 | 0.00 | 0.00 | 0.00 | 32 | 1007.7 |
| 20260505194051 | 28 | 359 | 20.9 | 41.8 | 0.00 | 0.00 | 0.00 | 33 | 1007.7 |
| 20260505193552 | 28 | 232 | 22.5 | 45.1 | 0.00 | 0.00 | 0.00 | 34 | 1007.8 |
| 20260505193050 | 28 | 215 | 22.5 | 45.1 | 0.00 | 0.00 | 0.00 | 34 | 1007.9 |